SCP
1 1 1 1 1 1 0 0 0 0 0 0 0 0 0 0 0 0 0 0 1 1 1 1 1 1 1 1 1 1 1 1 1 1 1 1 1 1 1 1 0 0 0 0 0 0 0 0 0
1 1 1 1 1 0 0 0 0 0 0 0 0 0 0 0 0 0 0 0 1 1 0 1 1 1 1 1 1 1 1 1 1 1 1 1 1 1 1 1 0 0 0 0 0 0 0 0 0
1 1 1 1 0 0 0 0 0 0 0 0 0 0 0 0 0 0 0 1 1 1 1 1 1 1 1 1 1 1 1 1 1 1 1 1 1 1 1 1 0 0 0 0 0 0 0 0 0
1 1 1 1 0 0 0 0 0 0 0 0 0 0 0 0 0 0 1 1 1 1 1 1 1 1 1 1 1 1 1 1 1 1 1 1 1 1 1 1 1 0 0 0 0 0 0 0 1
1 1 1 0 0 0 0 0 0 0 0 0 0 0 0 1 0 1 1 1 1 1 1 1 1 1 1 1 1 1 1 1 1 1 1 1 1 0 0 1 1 0 0 0 0 0 0 0 0
1 1 1 0 0 0 0 0 0 0 0 0 0 0 1 1 1 1 1 1 1 1 1 1 1 1 1 1 1 1 1 1 1 1 1 1 1 0 0 0 1 0 0 0 0 0 0 0 0
1 1 0 0 1 1 1 1 0 0 0 0 0 0 1 1 1 1 1 1 1 1 1 1 1 0 1 1 1 1 1 1 1 2 1 1 1 0 0 0 0 0 0 0 0 0 0 0 0
1 0 0 0 1 1 1 1 0 0 0 0 0 0 1 1 1 1 1 1 1 1 1 1 1 0 0 0 1 1 1 1 2 2 1 1 0 0 0 0 0 0 0 0 0 0 0 0 0
1 1 0 0 1 1 1 1 1 0 1 1 1 1 1 1 1 1 1 1 1 1 1 1 1 1 0 0 1 1 1 1 1 2 1 1 0 0 0 0 0 0 0 0 0 0 1 1 1
1 0 0 0 0 1 1 1 1 1 1 1 1 1 1 1 1 1 1 1 1 1 1 1 1 1 1 1 1 1 1 1 1 1 1 0 0 0 0 0 0 0 0 0 0 1 1 1 1
0 0 0 0 0 1 1 1 1 1 1 1 1 1 1 1 1 1 0 0 0 1 1 1 1 1 1 1 1 1 1 1 1 1 0 0 0 0 0 0 1 1 0 0 0 1 1 1 0
0 0 0 0 0 1 1 1 1 1 1 1 1 2 2 1 1 1 0 0 0 0 1 1 1 1 1 1 1 1 1 1 1 0 0 0 0 0 0 0 0 0 0 0 0 1 1 0 0
0 0 0 0 1 1 1 1 1 1 1 1 1 2 1 1 1 1 0 0 0 0 1 1 1 1 1 1 1 1 1 1 0 0 0 0 0 0 0 0 0 0 0 0 0 0 0 0 0
0 0 0 0 1 1 1 1 1 1 1 1 1 1 1 1 1 1 0 0 0 0 1 1 1 1 1 1 1 1 1 0 0 0 0 0 0 0 0 0 0 0 0 0 0 0 0 0 0
0 0 0 0 0 1 1 1 1 1 1 1 1 1 1 1 1 1 1 0 0 0 1 1 1 1 1 1 1 0 0 0 0 0 0 0 0 1 1 0 0 0 0 0 0 0 0 0 0
0 0 0 0 0 0 0 1 1 1 1 1 1 1 1 1 1 1 1 1 0 0 1 1 1 1 1 1 1 0 0 0 0 0 0 0 1 1 1 0 0 0 0 1 1 1 1 0 0
0 0 0 0 0 0 0 1 1 1 1 1 1 1 1 1 1 1 1 1 1 1 1 1 1 1 1 1 1 1 1 1 1 0 1 1 1 1 0 0 0 0 1 1 1 1 1 1 1
0 0 0 0 0 0 0 1 1 1 1 1 1 1 1 1 1 1 1 1 1 1 1 1 1 1 1 1 1 1 1 1 1 1 1 1 0 0 0 0 0 1 1 1 1 1 1 1 1
0 0 0 0 0 0 0 1 1 1 1 1 1 1 1 1 1 1 1 1 1 1 1 1 1 1 1 1 1 1 1 1 1 1 1 1 0 0 0 0 1 1 1 1 1 1 1 1 2
0 0 0 0 0 0 0 1 1 1 1 1 1 1 1 1 1 1 1 1 1 1 1 1 1 1 1 1 1 1 1 1 1 1 1 1 1 0 1 1 1 1 2 2 2 2 2 2 2
0 0 0 0 0 0 0 0 1 1 1 1 1 1 1 1 1 1 1 1 1 1 1 1 1 1 1 1 1 1 1 1 1 1 1 1 1 1 1 1 1 1 2 2 3 3 3 3 2
0 0 0 0 0 0 0 0 1 1 1 1 1 1 1 1 2 2 2 1 1 1 1 1 1 1 2 2 2 1 1 1 1 1 1 1 1 1 1 1 2 2 2 3 3 3 3 3 3
0 0 0 0 0 0 0 0 0 1 1 1 1 1 1 1 2 2 2 2 1 1 1 1 2 2 2 2 2 1 1 1 1 1 1 1 1 1 1 1 2 2 2 3 3 3 3 3 4
0 0 0 0 0 0 0 0 0 0 0 1 1 1 1 1 2 2 2 2 2 1 1 1 2 3 3 2 2 2 1 1 1 1 2 2 1 1 1 1 2 2 2 2 3 3 3 3 4
0 0 0 0 0 0 0 0 0 0 0 0 1 1 2 2 2 2 2 2 2 2 2 2 3 3 3 3 3 2 2 2 2 2 2 2 2 1 1 1 1 2 2 2 3 3 3 3 3
0 0 0 0 0 0 0 0 0 0 0 0 1 1 2 2 2 2 2 2 3 2 2 2 3 4 4 4 4 3 3 2 2 2 2 2 2 2 1 1 1 2 2 2 2 3 3 3 3
0 0 0 0 0 0 0 0 0 1 1 1 1 2 2 3 3 3 3 3 3 3 3 3 3 4 4 4 4 4 3 3 2 2 2 2 2 2 2 2 2 2 2 2 2 3 3 3 3
0 0 0 0 0 0 0 0 1 2 2 1 1 2 2 3 3 4 4 3 3 3 3 3 3 4 4 4 4 4 4 3 3 3 2 2 2 2 2 2 3 2 2 2 2 3 3 3 3
0 0 0 0 0 0 0 1 2 3 3 2 2 2 2 3 3 4 5 4 3 3 3 3 3 3 3 3 4 5 4 4 3 3 3 3 3 3 4 3 3 3 3 3 3 3 3 3 3
0 0 0 0 0 0 0 1 2 3 3 2 2 2 2 3 3 5 5 4 3 3 3 3 3 3 3 3 4 5 4 4 3 3 4 3 4 4 5 4 4 3 3 3 3 3 3 3 3
Wind_Speed
10 8 5 5 5 4 11 9 8 8 7 7 7 6 7 8 7 8 7 9 10 11 12 13 12 13 13 13 13 14 15 15 15 15 14 14 13 13 13 13 13 13 13 13 12 12 11 11 10
6 5 6 5 0 8 11 9 9 10 8 7 6 7 7 8 7 8 8 9 11 11 11 12 13 12 13 12 13 13 14 15 14 14 13 13 13 12 12 12 12 12 12 12 11 11 11 10 10
5 6 5 1 8 10 10 9 9 8 7 4 5 6 6 6 6 6 8 11 11 11 10 13 13 12 12 12 13 13 14 14 14 13 13 12 12 12 11 11 11 11 11 11 10 10 10 10 9
5 5 4 4 13 13 10 8 7 7 6 5 6 8 7 6 4 7 11 11 11 11 11 14 13 13 12 12 12 13 14 13 13 13 12 12 11 11 10 10 10 10 10 10 9 9 9 9 8
5 4 3 10 13 11 9 7 5 5 5 6 6 8 8 6 8 11 11 11 11 11 11 14 13 13 12 12 12 13 13 12 12 12 11 11 10 10 10 10 9 9 9 8 8 8 8 7 7
5 3 4 10 12 9 8 6 5 7 8 7 7 8 7 7 10 11 11 10 10 11 11 13 14 12 12 11 11 12 12 12 11 11 11 10 10 9 9 8 8 8 7 7 7 7 6 6 5
4 2 8 10 9 9 7 5 5 6 6 6 5 7 8 9 10 11 10 10 9 10 10 10 12 12 12 11 11 12 12 11 11 10 10 9 9 8 8 7 7 6 5 6 6 5 4 4 4
4 1 7 8 8 9 7 5 5 5 7 6 3 6 9 12 11 11 10 10 8 8 8 9 8 9 10 11 12 11 11 10 10 9 9 9 9 9 7 7 6 5 5 6 5 4 3 3 3
5 0 7 8 7 7 5 5 6 5 7 6 5 6 13 17 14 12 10 10 9 8 7 7 8 7 7 9 12 11 11 10 10 9 9 7 6 7 7 7 6 4 4 5 4 3 2 3 5
3 4 9 7 6 6 5 5 5 5 6 7 9 12 17 16 14 13 12 11 10 9 8 6 6 7 7 6 8 6 7 8 6 5 6 4 3 3 4 8 5 4 4 5 4 3 5 7 4
2 6 6 5 5 5 5 5 4 4 5 6 10 15 17 16 14 12 12 11 10 9 8 7 7 6 6 5 5 4 3 4 5 6 4 3 2 3 3 3 5 5 6 4 6 6 3 1 1
2 5 4 4 4 3 4 4 4 3 6 6 11 16 17 16 14 12 11 11 10 9 8 7 7 6 5 4 4 4 3 3 3 5 3 3 1 1 2 1 2 3 2 2 1 1 1 0 1
3 4 4 4 4 4 4 4 4 4 6 9 13 15 15 14 13 11 10 10 10 9 8 7 7 6 5 4 3 4 3 3 4 3 3 2 2 1 2 1 0 1 2 2 2 1 0 1 2
3 3 4 4 4 4 4 4 4 5 8 11 13 14 14 13 13 11 11 10 9 9 8 8 7 7 6 5 4 3 3 3 2 3 3 2 1 1 1 2 1 1 1 0 1 1 1 1 1
3 3 4 4 3 4 4 4 5 8 9 11 11 12 12 12 12 12 11 10 9 9 8 8 8 8 7 6 6 4 4 4 3 2 3 3 3 2 2 1 2 1 1 2 2 1 2 2 2
5 5 4 5 2 3 5 4 7 9 10 10 10 11 11 11 11 11 10 9 9 9 9 8 8 8 8 6 5 4 4 4 3 3 3 3 2 3 3 2 2 1 2 2 2 3 2 2 2
6 3 2 5 3 2 4 2 7 8 9 9 10 10 11 11 11 11 11 10 9 9 9 9 8 8 8 7 5 4 3 3 3 3 3 3 4 4 4 2 1 3 2 2 3 0 2 2 2
1 1 1 2 3 3 3 1 6 8 8 9 10 10 11 11 12 11 11 10 10 10 9 9 9 8 7 6 5 4 5 5 4 4 3 4 4 4 4 3 3 4 2 2 1 1 2 3 3
4 4 2 1 1 3 2 1 4 7 8 9 10 11 11 11 11 12 11 11 11 11 10 10 9 9 7 6 6 5 5 5 5 4 4 5 5 4 4 3 3 4 3 2 3 3 3 3 2
5 6 3 1 1 3 2 2 3 6 9 8 10 10 11 11 11 12 12 12 12 12 11 11 10 10 9 6 5 4 4 4 4 3 3 5 4 4 5 4 4 4 3 3 3 3 3 2 1
6 5 3 2 2 5 5 5 5 6 7 8 9 9 10 11 12 13 14 13 13 13 13 11 11 10 10 8 6 5 4 4 4 5 4 4 4 4 4 4 4 3 4 3 3 3 3 3 2
5 3 4 5 7 4 5 5 4 5 6 8 9 9 10 11 12 13 14 14 14 14 13 12 12 11 10 10 8 8 6 6 5 4 3 4 4 5 5 5 4 4 4 2 4 2 3 4 3
3 2 4 6 7 7 6 8 2 4 4 5 7 9 10 11 12 13 14 14 14 13 13 12 12 12 11 11 10 9 8 6 5 5 4 4 4 5 5 5 4 4 4 3 4 3 4 4 4
4 5 6 8 8 8 4 8 3 1 2 2 3 6 9 10 11 11 12 12 12 12 12 12 13 13 12 12 11 10 9 8 7 6 5 6 5 5 6 5 5 5 4 3 4 4 5 4 4
8 9 7 8 7 5 2 7 2 2 2 3 2 3 6 9 10 10 11 12 12 12 13 12 13 13 13 13 12 12 11 10 10 8 7 6 5 5 5 5 5 4 4 4 4 5 5 5 5
9 10 7 7 6 3 5 5 0 1 1 2 1 1 3 6 9 10 10 10 11 12 12 12 13 13 13 13 12 11 11 10 8 9 8 7 6 5 4 5 5 5 5 5 5 5 5 5 5
7 8 8 9 8 7 4 3 3 2 1 0 1 1 2 4 6 8 9 9 10 11 12 12 12 11 12 12 12 11 11 10 9 8 8 7 6 5 6 6 6 6 5 5 5 5 5 5 6
6 6 6 8 7 8 6 7 3 1 1 2 2 1 1 3 4 5 7 7 8 9 11 11 11 11 10 11 11 10 11 10 9 9 9 8 7 6 6 7 7 6 6 6 6 6 5 5 5
6 7 7 7 7 9 7 2 4 2 2 2 2 2 1 2 3 4 5 6 7 7 8 9 9 10 9 9 9 9 10 10 10 9 9 9 8 8 8 7 7 7 7 6 6 7 6 6 6
7 8 8 8 7 8 8 3 5 3 2 2 2 2 1 1 2 3 3 5 6 6 6 7 8 8 8 8 8 9 9 9 10 10 10 9 9 9 8 8 8 8 8 7 7 8 7 7 7
Wind_Direction
184 194 222 237 225 92 68 65 67 77 76 70 67 65 62 43 30 73 104 124 123 126 124 126 123 123 123 125 126 125 126 124 121 119 118 115 112 108 104 100 98 97 97 97 97 97 98 100 101
178 199 232 239 65 79 71 66 66 65 87 104 84 77 75 66 58 95 122 127 130 127 129 128 127 129 129 128 127 127 126 125 123 122 119 116 113 110 105 101 98 97 98 99 99 98 100 101 103
193 233 262 275 57 61 71 70 79 85 93 97 87 62 55 67 87 107 122 136 133 126 128 125 133 131 130 129 127 129 128 127 125 123 119 116 114 111 107 105 101 99 100 101 102 101 100 100 103
227 228 232 76 71 63 68 77 93 108 97 83 96 88 78 64 87 113 130 139 132 130 131 126 133 131 130 129 129 130 128 128 127 124 121 118 116 114 110 107 104 102 103 102 102 102 103 106 108
242 256 123 83 75 73 72 75 87 85 84 91 94 96 88 81 104 120 133 136 132 130 127 128 132 132 131 130 130 131 129 128 127 124 122 118 116 114 111 109 106 104 103 104 102 101 105 109 112
243 239 84 82 82 81 80 82 82 85 92 99 107 104 90 112 125 128 130 131 130 128 128 128 131 132 133 133 131 130 131 129 127 125 122 118 116 114 113 111 108 106 105 107 107 105 104 107 111
300 38 76 83 88 86 75 75 71 88 95 94 109 105 115 130 130 130 129 127 128 129 130 133 141 139 139 137 136 134 132 129 126 124 123 123 121 119 116 114 111 109 107 107 107 105 105 107 111
299 294 87 80 81 82 86 85 69 70 87 101 118 119 134 139 138 134 131 129 126 127 127 132 141 137 147 144 139 135 133 130 129 129 129 131 134 136 132 137 117 116 115 110 109 110 111 119 124
259 148 74 68 69 86 101 101 87 87 105 103 85 90 122 137 142 140 139 136 135 132 135 136 135 138 142 140 138 145 142 140 149 145 146 165 157 140 148 104 110 126 126 122 123 125 133 171 163
266 59 63 57 65 92 108 98 115 129 119 113 110 108 127 143 150 151 149 148 146 145 143 139 140 143 142 138 138 148 150 146 155 140 147 149 126 120 115 120 139 140 141 153 156 170 200 224 174
18 52 64 71 76 97 111 110 122 133 113 124 137 138 145 151 155 156 153 151 148 148 147 152 145 138 135 135 142 138 139 141 149 142 145 136 147 146 144 143 155 164 177 173 163 195 202 179 105
71 63 59 79 91 103 106 115 116 93 71 108 135 145 151 158 161 160 155 153 150 152 155 154 145 142 139 132 134 147 147 142 136 137 161 144 142 150 116 152 154 166 154 145 186 185 142 199 207
100 75 81 101 116 111 120 116 106 101 98 120 134 148 155 159 160 157 156 158 158 159 158 155 150 148 149 151 160 145 147 142 135 133 138 157 168 172 152 153 175 195 134 170 191 205 137 239 221
69 90 105 122 124 132 129 119 129 110 125 133 144 154 160 162 162 161 166 167 166 166 164 159 163 159 162 168 165 156 156 149 147 152 148 184 179 171 194 181 186 204 196 154 227 207 205 243 274
162 152 139 131 137 136 168 131 117 126 142 147 154 158 161 167 169 172 174 175 173 172 172 169 171 167 169 173 175 172 174 163 160 155 168 205 202 179 221 204 214 198 193 195 225 237 252 239 237
201 206 159 126 149 156 245 88 107 142 157 158 160 162 168 173 178 177 180 181 179 177 177 181 181 171 173 181 183 182 181 169 179 185 184 201 205 212 236 223 219 217 229 220 214 233 258 272 274
204 206 121 130 156 189 239 83 115 154 169 165 169 171 175 178 186 182 184 184 183 182 183 185 187 180 180 180 186 189 184 196 203 200 203 195 212 217 236 238 227 235 232 234 253 163 273 266 278
249 254 162 120 136 220 233 116 131 165 182 177 177 179 183 186 189 188 189 187 186 186 187 188 188 186 186 187 190 194 197 204 211 212 211 221 225 223 243 225 217 242 238 239 258 264 252 264 260
284 274 273 60 72 244 239 221 162 173 190 188 186 188 191 193 189 188 191 191 189 188 189 192 192 185 191 195 200 199 198 203 206 212 209 223 236 229 239 255 221 238 233 243 244 248 229 242 256
250 253 241 158 132 254 258 250 184 183 199 198 192 193 195 193 189 189 193 194 193 191 193 193 194 192 196 193 203 209 213 214 214 221 206 226 230 235 228 234 240 229 225 230 243 254 276 273 248
236 260 275 268 213 218 246 224 188 185 197 201 203 201 199 197 193 189 192 194 195 195 196 196 197 197 199 195 197 197 201 220 210 213 214 224 230 236 252 245 256 255 249 225 236 240 245 266 258
241 256 264 249 247 227 251 264 186 187 195 203 204 205 205 199 197 193 192 196 198 198 195 196 195 198 196 196 204 204 209 216 216 221 212 215 226 234 235 239 245 251 259 241 243 222 253 256 264
277 267 248 250 255 259 238 268 202 183 215 218 206 206 207 200 199 197 196 197 199 197 195 193 194 197 196 199 202 209 218 221 219 218 212 229 222 232 237 237 238 238 250 252 264 251 252 250 260
209 214 219 236 246 247 258 270 258 203 290 281 214 205 206 201 198 198 197 195 199 197 196 194 192 197 198 201 205 210 217 223 226 224 219 220 219 221 224 230 235 241 249 242 245 247 235 251 264
220 234 232 224 225 235 213 259 286 11 345 321 296 211 203 197 196 194 193 192 196 198 198 197 196 198 199 202 206 208 214 217 220 226 223 232 232 222 216 228 226 239 245 248 245 239 251 241 243
230 247 256 267 263 227 192 246 346 49 358 323 299 201 191 192 190 192 192 195 197 198 198 199 199 201 201 202 205 209 211 217 219 220 233 225 235 234 218 220 227 233 237 241 237 247 239 237 244
227 241 269 271 270 270 247 246 194 179 198 335 34 124 153 180 186 187 188 193 198 199 198 199 198 202 204 205 205 208 211 220 224 217 223 230 229 228 217 221 225 230 232 238 239 248 250 243 244
272 262 246 256 262 263 244 242 248 221 344 29 31 78 128 167 180 183 186 187 192 197 196 198 198 203 207 207 208 206 209 213 219 225 223 231 231 231 229 225 227 227 226 229 238 245 239 244 242
207 222 246 262 274 275 270 261 55 42 3 344 11 59 105 162 173 172 176 182 182 184 189 192 194 199 204 207 208 212 210 209 213 219 224 224 229 227 228 229 229 230 229 228 231 247 242 245 245
243 247 240 249 248 257 274 278 81 47 12 352 9 48 77 132 149 161 165 169 172 175 180 185 190 195 203 205 205 210 212 212 214 215 218 218 221 225 225 228 231 234 232 231 232 240 241 243 245